TimeMST,TemperatureF,Dew PointF,Humidity,Sea Level PressureIn,VisibilityMPH,Wind Direction,Wind SpeedMPH,Gust SpeedMPH,PrecipitationIn,Events,Conditions,WindDirDegrees,DateUTC
12:15 AM,39.2,33.8,81,30.29,10.0,ESE,5.8,-,N/A,,Clear,110,2012-11-20 07:15:00
12:35 AM,41.0,33.8,76,30.28,10.0,ESE,10.4,-,N/A,,Clear,110,2012-11-20 07:35:00
12:55 AM,37.4,32.0,81,30.28,10.0,East,3.5,-,N/A,,Clear,100,2012-11-20 07:55:00
1:15 AM,35.6,30.2,81,30.28,10.0,ESE,3.5,-,N/A,,Clear,110,2012-11-20 08:15:00
1:35 AM,35.6,33.8,93,30.28,10.0,Calm,Calm,-,N/A,,Clear,0,2012-11-20 08:35:00
1:55 AM,37.4,33.8,87,30.27,10.0,ESE,3.5,-,N/A,,Clear,110,2012-11-20 08:55:00
2:55 AM,37.4,30.2,75,30.27,10.0,SE,4.6,-,N/A,,Clear,130,2012-11-20 09:55:00
3:15 AM,35.6,28.4,75,30.27,10.0,Calm,Calm,-,N/A,,Clear,0,2012-11-20 10:15:00
3:35 AM,37.4,30.2,75,30.27,10.0,South,5.8,-,N/A,,Clear,170,2012-11-20 10:35:00
3:55 AM,39.2,33.8,81,30.26,10.0,East,4.6,-,N/A,,Clear,100,2012-11-20 10:55:00
4:15 AM,35.6,30.2,81,30.26,10.0,Calm,Calm,-,N/A,,Clear,0,2012-11-20 11:15:00
4:35 AM,37.4,32.0,81,30.26,10.0,SSE,5.8,-,N/A,,Clear,160,2012-11-20 11:35:00
4:55 AM,37.4,30.2,75,30.26,10.0,South,10.4,-,N/A,,Clear,190,2012-11-20 11:55:00
5:15 AM,39.2,32.0,75,30.26,10.0,SE,11.5,-,N/A,,Clear,140,2012-11-20 12:15:00
5:35 AM,37.4,30.2,75,30.26,10.0,ESE,8.1,-,N/A,,Clear,120,2012-11-20 12:35:00
5:55 AM,39.2,32.0,75,30.26,10.0,SSE,11.5,-,N/A,,Clear,150,2012-11-20 12:55:00
6:35 AM,39.2,30.2,70,30.26,10.0,SE,11.5,-,N/A,,Clear,140,2012-11-20 13:35:00
6:49 AM,37.4,30.2,75,30.26,15.0,SE,9.2,-,N/A,,Scattered Clouds,140,2012-11-20 13:49:00
7:54 AM,39.2,33.8,81,30.26,15.0,SSE,9.2,-,N/A,,Scattered Clouds,150,2012-11-20 14:54:00
8:57 AM,42.8,33.8,70,30.26,15.0,ENE,3.5,-,N/A,,Scattered Clouds,60,2012-11-20 15:57:00
9:48 AM,50.0,35.6,58,30.25,15.0,South,5.8,-,N/A,,Scattered Clouds,170,2012-11-20 16:48:00
10:49 AM,48.2,33.8,58,30.24,15.0,SSW,5.8,-,N/A,,Scattered Clouds,210,2012-11-20 17:49:00
11:50 AM,50.0,33.8,54,30.20,15.0,Calm,Calm,-,N/A,,Mostly Cloudy,0,2012-11-20 18:50:00
1:48 PM,59.0,35.6,42,30.14,15.0,Calm,Calm,-,N/A,,Mostly Cloudy,0,2012-11-20 20:48:00
2:49 PM,60.8,30.2,31,30.12,15.0,SSW,3.5,-,N/A,,Scattered Clouds,200,2012-11-20 21:49:00
3:50 PM,57.2,35.6,44,30.12,15.0,Calm,Calm,-,N/A,,Mostly Cloudy,0,2012-11-20 22:50:00
4:50 PM,55.4,35.6,47,30.11,15.0,Variable,5.8,-,N/A,,Mostly Cloudy,0,2012-11-20 23:50:00
6:55 PM,51.8,33.8,50,30.10,15.0,ESE,8.1,-,N/A,,Mostly Cloudy,110,2012-11-21 01:55:00
7:50 PM,51.8,33.8,50,30.10,15.0,SE,16.1,-,N/A,,Mostly Cloudy,140,2012-11-21 02:50:00
8:54 PM,51.8,33.8,50,30.09,15.0,SE,16.1,-,N/A,,Mostly Cloudy,140,2012-11-21 03:54:00
9:15 PM,51.8,33.8,50,30.09,10.0,SSE,18.4,-,N/A,,Clear,150,2012-11-21 04:15:00
9:35 PM,51.8,33.8,50,30.09,10.0,SSE,17.3,-,N/A,,Clear,150,2012-11-21 04:35:00
9:55 PM,51.8,33.8,50,30.09,10.0,SSE,17.3,-,N/A,,Clear,150,2012-11-21 04:55:00
10:15 PM,50.0,33.8,54,30.09,10.0,SSE,17.3,-,N/A,,Clear,150,2012-11-21 05:15:00
10:35 PM,50.0,33.8,54,30.09,10.0,SSE,16.1,-,N/A,,Clear,160,2012-11-21 05:35:00
10:55 PM,50.0,33.8,54,30.09,10.0,SSE,17.3,-,N/A,,Clear,150,2012-11-21 05:55:00
11:35 PM,48.2,33.8,58,30.10,10.0,SE,16.1,-,N/A,,Clear,140,2012-11-21 06:35:00
11:55 PM,50.0,32.0,50,30.09,10.0,SE,16.1,19.6,N/A,,Clear,130,2012-11-21 06:55:00